Retour au catalogue

FENGYUN 1C DEB

ActifPO
NORAD 29735·DEBRIS·🇨🇳 China

Lancé May 10, 1999 depuis Taiyuan Satellite Launch Center

Loading…

Prochains Passages (prochaines 24 heures)

TLE

FraisSource: Space-Track

Époque: Sep 14, 2026, 02:45 UTC

1 29735U 99025Z   26257.11518971  .00000105  00000-0  23979-3 0  9995
2 29735  99.3804 131.3219 0700497 285.0081  67.4555 12.75904379909267

Suivez FENGYUN 1C DEB en temps réel avec AllMySat

Download on the App Store